Date String (YYYY-MM-DD hh:mm:ss) UTC,Instrument flags,Ambient pressure (hPa),Sample flow (lpm),Bypass flow (lpm),Sample temperature (°C),Ambient temperature (°C),ASC tube jacket temperature (°C),LED temperature (°C),Box temperature (°C),Sample RH (%),Span deviation,Mass concentration (μg/m³),Mass concentration (μg/m³),Mass concentration (μg/m³)
DateTimeUTC,F1_M11,P_M11,Q1_M11,Q2_M11,T1_M11,T2_M11,T3_M11,T4_M11,T5_M11,U1_M11,ZSPAN_M11,X0_M11,X2_M11,X1_M11
2022-05-10 20:00:00,,0824.6,4.99,0.00,26.3,25.7,00.0,35.1,28.1,11.2,0000.0,0019.73,0005.34,0002.99
2022-05-10 20:01:00,,0824.6,5.00,0.00,26.3,25.7,00.0,35.1,28.1,11.4,0000.0,0018.57,0005.32,0003.00
2022-05-10 20:02:00,,0824.6,5.00,0.00,26.3,25.7,00.0,35.1,28.2,11.4,0000.0,0018.98,0005.32,0003.01
2022-05-10 20:03:00,,0824.6,5.00,0.00,26.3,25.7,00.0,35.2,28.2,11.4,0000.0,0018.24,0005.26,0003.00
2022-05-10 20:04:00,,0824.5,5.01,0.00,26.3,25.8,00.0,35.2,28.2,11.6,0000.0,0018.69,0005.30,0003.03
2022-05-10 20:05:00,,0824.5,5.00,0.00,26.3,25.8,00.0,35.2,28.2,12.0,0000.0,0019.75,0005.28,0003.00
2022-05-10 20:06:00,,0824.5,5.00,0.00,26.4,25.9,00.0,35.2,28.2,11.6,0000.0,0019.99,0005.19,0002.92
2022-05-10 20:07:00,,0824.5,5.00,0.00,26.4,25.9,00.0,35.2,28.3,11.5,0000.0,0020.31,0005.17,0002.87
2022-05-10 20:08:00,,0824.4,5.00,0.00,26.4,25.9,00.0,35.2,28.3,11.4,0000.0,0018.56,0005.11,0002.84
2022-05-10 20:09:00,,0824.4,5.00,0.00,26.4,25.9,00.0,35.2,28.3,11.1,0000.0,0018.12,0005.16,0002.79
2022-05-10 20:10:00,,0824.5,5.01,0.00,26.4,25.9,00.0,35.3,28.3,11.8,0000.0,0018.64,0005.20,0002.75
2022-05-10 20:11:00,,0824.5,5.00,0.00,26.5,26.0,00.0,35.3,28.3,11.9,0000.0,0018.85,0005.17,0002.69
2022-05-10 20:12:00,,0824.4,4.99,0.00,26.5,26.0,00.0,35.3,28.4,11.4,0000.0,0018.90,0005.17,0002.68
2022-05-10 20:13:00,,0824.4,5.01,0.00,26.5,26.0,00.0,35.3,28.4,11.2,0000.0,0018.32,0005.18,0002.68
2022-05-10 20:14:00,,0824.5,4.99,0.00,26.5,26.0,00.0,35.3,28.4,11.4,0000.0,0017.76,0005.23,0002.67
2022-05-10 20:15:00,,0824.6,5.00,0.00,26.5,26.0,00.0,35.3,28.3,11.2,0000.0,0017.46,0005.25,0002.66
2022-05-10 20:16:00,,0824.4,5.01,0.00,26.5,26.0,00.0,35.3,28.4,11.5,0000.0,0016.87,0005.27,0002.67
2022-05-10 20:17:00,,0824.5,5.00,0.00,26.5,26.0,00.0,35.4,28.4,11.9,0000.0,0017.48,0005.30,0002.69
2022-05-10 20:18:00,,0824.4,5.00,0.00,26.5,26.0,00.0,35.4,28.4,11.6,0000.0,0018.30,0005.33,0002.67
2022-05-10 20:19:00,,0824.4,5.00,0.00,26.5,26.0,00.0,35.4,28.5,11.2,0000.0,0018.68,0005.35,0002.73
2022-05-10 20:20:00,,0824.3,5.01,0.00,26.6,26.0,00.0,35.4,28.5,11.3,0000.0,0019.44,0005.32,0002.77
2022-05-10 20:21:00,,0824.4,4.99,0.00,26.6,26.1,00.0,35.4,28.5,11.3,0000.0,0019.24,0005.26,0002.81
2022-05-10 20:22:00,,0824.4,5.01,0.00,26.6,26.1,00.0,35.4,28.6,11.4,0000.0,0019.55,0005.26,0002.85
2022-05-10 20:23:00,,0824.4,5.00,0.00,26.7,26.1,00.0,35.4,28.6,11.4,0000.0,0020.20,0005.27,0002.86
2022-05-10 20:24:00,,0824.4,4.99,0.00,26.7,26.2,00.0,35.5,28.6,11.4,0000.0,0021.85,0005.24,0002.84
2022-05-10 20:25:00,,0824.4,5.02,0.00,26.7,26.2,00.0,35.5,28.6,11.1,0000.0,0023.25,0005.17,0002.82
2022-05-10 20:26:00,,0824.3,5.00,0.00,26.7,26.2,00.0,35.5,28.6,11.3,0000.0,0022.90,0005.07,0002.79
2022-05-10 20:27:00,,0824.3,4.99,0.00,26.7,26.2,00.0,35.5,28.6,11.3,0000.0,0022.69,0005.05,0002.77
2022-05-10 20:28:00,,0824.3,5.01,0.00,26.7,26.2,00.0,35.5,28.6,11.8,0000.0,0022.59,0005.05,0002.76
2022-05-10 20:29:00,,0824.3,5.00,0.00,26.8,26.2,00.0,35.5,28.7,11.8,0000.0,0021.68,0005.01,0002.72
2022-05-10 20:30:00,,0824.3,5.00,0.00,26.8,26.2,00.0,35.6,28.7,12.3,0000.0,0022.63,0004.97,0002.67
2022-05-10 20:31:00,,0824.3,5.01,0.00,26.8,26.3,00.0,35.6,28.7,11.5,0000.0,0022.40,0004.94,0002.62
2022-05-10 20:32:00,,0824.4,4.99,0.00,26.8,26.3,00.0,35.6,28.7,11.0,0000.0,0022.26,0004.92,0002.59
2022-05-10 20:33:00,,0824.3,5.00,0.00,26.8,26.4,00.0,35.6,28.7,11.1,0000.0,0022.32,0004.85,0002.55
2022-05-10 20:34:00,,0824.3,5.00,0.00,26.8,26.4,00.0,35.6,28.7,10.9,0000.0,0022.24,0004.81,0002.51
2022-05-10 20:35:00,,0824.3,4.99,0.00,26.9,26.4,00.0,35.6,28.7,10.9,0000.0,0021.11,0004.79,0002.48
2022-05-10 20:36:00,,0824.3,5.01,0.00,26.9,26.4,00.0,35.7,28.8,10.9,0000.0,0019.13,0004.71,0002.45
2022-05-10 20:37:00,,0824.2,5.00,0.00,26.9,26.4,00.0,35.7,28.8,11.4,0000.0,0018.41,0004.72,0002.45
2022-05-10 20:38:00,,0824.2,5.01,0.00,26.9,26.4,00.0,35.7,28.8,11.9,0000.0,0018.84,0004.76,0002.45
2022-05-10 20:39:00,,0824.2,4.99,0.00,26.9,26.5,00.0,35.7,28.8,11.3,0000.0,0019.37,0004.73,0002.44
2022-05-10 20:40:00,,0824.2,5.02,0.00,26.9,26.5,00.0,35.7,28.8,11.3,0000.0,0019.08,0004.79,0002.47
2022-05-10 20:41:00,,0824.2,4.99,0.00,26.9,26.5,00.0,35.8,28.8,11.1,0000.0,0018.50,0004.91,0002.51
2022-05-10 20:42:00,,0824.1,5.01,0.00,27.0,26.5,00.0,35.8,28.8,10.9,0000.0,0017.63,0004.90,0002.56
2022-05-10 20:43:00,,0824.1,4.99,0.00,27.0,26.4,00.0,35.8,28.8,11.0,0000.0,0018.02,0004.94,0002.58
2022-05-10 20:44:00,,0824.1,5.00,0.00,27.0,26.5,00.0,35.8,28.9,11.1,0000.0,0018.19,0004.96,0002.60
2022-05-10 20:45:00,,0824.1,5.00,0.00,27.0,26.5,00.0,35.8,28.9,11.1,0000.0,0018.36,0005.01,0002.61
2022-05-10 20:46:00,,0824.1,5.00,0.00,27.0,26.5,00.0,35.8,28.9,11.4,0000.0,0018.20,0005.08,0002.61
2022-05-10 20:47:00,,0824.1,5.01,0.00,27.0,26.5,00.0,35.9,28.9,12.3,0000.0,0018.05,0005.14,0002.61
2022-05-10 20:48:00,,0824.1,5.00,0.00,27.1,26.5,00.0,35.9,28.9,11.1,0000.0,0018.00,0005.19,0002.63
2022-05-10 20:49:00,,0824.1,5.01,0.00,27.1,26.6,00.0,35.9,28.9,11.3,0000.0,0018.49,0005.11,0002.64
2022-05-10 20:50:00,,0824.0,5.00,0.00,27.1,26.5,00.0,35.9,29.0,11.2,0000.0,0018.78,0005.10,0002.64
2022-05-10 20:51:00,,0824.0,4.99,0.00,27.1,26.6,00.0,35.9,29.0,11.6,0000.0,0019.00,0005.12,0002.64
2022-05-10 20:52:00,,0824.1,5.00,0.00,27.1,26.6,00.0,35.9,29.0,11.2,0000.0,0019.44,0005.05,0002.62
2022-05-10 20:53:00,,0824.0,5.01,0.00,27.1,26.6,00.0,36.0,29.0,11.8,0000.0,0020.07,0005.03,0002.61
2022-05-10 20:54:00,,0824.0,4.99,0.00,27.2,26.6,00.0,36.0,29.0,10.9,0000.0,0019.86,0005.06,0002.61
2022-05-10 20:55:00,,0824.1,5.01,0.00,27.2,26.6,00.0,36.0,29.0,11.0,0000.0,0019.70,0005.11,0002.61
2022-05-10 20:56:00,,0824.1,4.99,0.00,27.2,26.6,00.0,36.0,29.0,10.9,0000.0,0019.96,0005.11,0002.65
2022-05-10 20:57:00,,0824.1,5.01,0.00,27.2,26.6,00.0,36.0,29.0,10.6,0000.0,0020.50,0005.03,0002.67
2022-05-10 20:58:00,,0824.1,4.99,0.00,27.2,26.6,00.0,36.0,29.0,10.9,0000.0,0021.30,0005.04,0002.71
2022-05-10 20:59:00,,0824.1,5.01,0.00,27.2,26.7,00.0,36.0,29.1,11.5,0000.0,0021.17,0005.01,0002.74
